| time (UTC) | temp F | wind direction | speed knots | gust knots | rain 1hr in | rain 24hr in | rain mn in | humidity % | barometer mb |
| 20260506070438 | 57 | 25 | 6.1 | 10.4 | 0.00 | 0.00 | 0.00 | 79 | 1008.7 |
| 20260506062439 | 57 | 16 | 6.1 | 11.3 | 0.00 | 0.00 | 0.00 | 80 | 1008.9 |
| 20260506061939 | 57 | 15 | 7.8 | 11.3 | 0.00 | 0.00 | 0.00 | 80 | 1009.1 |
| 20260506060938 | 57 | 7 | 10.4 | 13.0 | 0.00 | 0.00 | 0.00 | 80 | 1009.2 |
| 20260506060438 | 57 | 11 | 8.7 | 13.0 | 0.00 | 0.00 | 0.00 | 80 | 1008.9 |
| 20260506050939 | 59 | 11 | 7.0 | 13.9 | 0.00 | 0.00 | 0.00 | 81 | 1009.0 |
| 20260506050439 | 59 | 9 | 7.8 | 13.9 | 0.00 | 0.00 | 0.00 | 81 | 1008.8 |
| 20260506044939 | 59 | 18 | 10.4 | 14.8 | 0.00 | 0.00 | 0.00 | 82 | 1009.0 |
| 20260506044439 | 59 | 13 | 10.4 | 14.8 | 0.00 | 0.00 | 0.00 | 82 | 1009.0 |
| 20260506043939 | 59 | 8 | 8.7 | 14.8 | 0.00 | 0.00 | 0.00 | 82 | 1009.0 |
| 20260506043440 | 59 | 11 | 10.4 | 13.0 | 0.00 | 0.00 | 0.00 | 82 | 1009.1 |
| 20260506042441 | 59 | 11 | 9.6 | 13.9 | 0.00 | 0.00 | 0.00 | 82 | 1008.9 |
| 20260506041939 | 59 | 9 | 8.7 | 13.9 | 0.00 | 0.00 | 0.00 | 82 | 1008.8 |
| 20260506041439 | 60 | 6 | 10.4 | 13.9 | 0.00 | 0.00 | 0.00 | 82 | 1008.8 |
| 20260506040940 | 60 | 0 | 9.6 | 14.8 | 0.00 | 0.00 | 0.00 | 82 | 1008.7 |
| 20260506040440 | 60 | 11 | 10.4 | 14.8 | 0.00 | 0.00 | 0.00 | 82 | 1008.6 |
| 20260506035939 | 60 | 24 | 9.6 | 13.0 | 0.00 | 0.00 | 0.00 | 82 | 1008.5 |
| 20260506035440 | 60 | 4 | 7.0 | 13.0 | 0.00 | 0.00 | 0.00 | 82 | 1008.5 |
| 20260506034940 | 60 | 8 | 10.4 | 13.9 | 0.00 | 0.00 | 0.00 | 82 | 1008.5 |
| 20260506034440 | 60 | 10 | 9.6 | 13.9 | 0.00 | 0.00 | 0.00 | 82 | 1008.6 |
| 20260506033940 | 60 | 5 | 10.4 | 15.6 | 0.00 | 0.00 | 0.00 | 82 | 1008.3 |
| 20260506033440 | 61 | 15 | 11.3 | 15.6 | 0.00 | 0.00 | 0.00 | 82 | 1008.1 |
| 20260506032940 | 61 | 22 | 8.7 | 14.8 | 0.00 | 0.00 | 0.00 | 82 | 1008.1 |
| 20260506032439 | 61 | 29 | 11.3 | 13.9 | 0.00 | 0.00 | 0.00 | 82 | 1008.0 |
| 20260506031939 | 61 | 4 | 9.6 | 13.9 | 0.00 | 0.00 | 0.00 | 82 | 1008.1 |
| 20260506031440 | 61 | 11 | 8.7 | 13.0 | 0.00 | 0.00 | 0.00 | 82 | 1008.0 |
| 20260506030940 | 61 | 358 | 9.6 | 14.8 | 0.00 | 0.00 | 0.00 | 82 | 1008.1 |
| 20260506030439 | 62 | 3 | 10.4 | 14.8 | 0.00 | 0.00 | 0.00 | 81 | 1008.0 |
| 20260506025939 | 62 | 6 | 10.4 | 13.0 | 0.00 | 0.00 | 0.00 | 81 | 1008.0 |
| 20260506025440 | 62 | 9 | 7.8 | 13.0 | 0.00 | 0.00 | 0.00 | 82 | 1007.7 |
| 20260506024940 | 62 | 9 | 10.4 | 13.0 | 0.00 | 0.00 | 0.00 | 81 | 1007.6 |
| 20260506024439 | 62 | 15 | 8.7 | 13.0 | 0.00 | 0.00 | 0.00 | 81 | 1007.5 |
| 20260506023941 | 63 | 15 | 8.7 | 12.2 | 0.00 | 0.00 | 0.00 | 81 | 1007.4 |
| 20260506022440 | 63 | 12 | 8.7 | 13.9 | 0.00 | 0.00 | 0.00 | 81 | 1006.9 |
| 20260506021940 | 64 | 6 | 7.8 | 13.0 | 0.00 | 0.00 | 0.00 | 81 | 1006.8 |
| 20260506020440 | 64 | 5 | 7.8 | 14.8 | 0.00 | 0.00 | 0.00 | 81 | 1006.2 |
| 20260506015942 | 65 | 358 | 7.0 | 11.3 | 0.00 | 0.00 | 0.00 | 80 | 1006.2 |
| 20260506015441 | 65 | 0 | 6.1 | 11.3 | 0.00 | 0.00 | 0.00 | 80 | 1006.2 |
| 20260506014941 | 66 | 12 | 7.8 | 12.2 | 0.00 | 0.00 | 0.00 | 80 | 1006.0 |
| 20260506014440 | 66 | 13 | 5.2 | 12.2 | 0.00 | 0.00 | 0.00 | 80 | 1005.9 |
| 20260506013940 | 66 | 12 | 9.6 | 13.0 | 0.00 | 0.00 | 0.00 | 79 | 1005.8 |
| 20260506013441 | 66 | 10 | 8.7 | 13.0 | 0.00 | 0.00 | 0.00 | 79 | 1005.6 |
| 20260506012940 | 67 | 17 | 9.6 | 13.9 | 0.00 | 0.00 | 0.00 | 78 | 1005.5 |
| 20260506012440 | 67 | 40 | 6.1 | 13.9 | 0.00 | 0.00 | 0.00 | 79 | 1005.4 |
| 20260506011941 | 67 | 31 | 7.8 | 10.4 | 0.00 | 0.00 | 0.00 | 79 | 1005.2 |
| 20260506011440 | 67 | 24 | 6.1 | 13.9 | 0.00 | 0.00 | 0.00 | 79 | 1005.3 |
| 20260506010942 | 67 | 3 | 7.0 | 13.9 | 0.00 | 0.00 | 0.00 | 79 | 1004.9 |
| 20260506010440 | 67 | 0 | 6.1 | 12.2 | 0.00 | 0.00 | 0.00 | 79 | 1004.6 |
| 20260506005940 | 67 | 357 | 8.7 | 13.0 | 0.00 | 0.00 | 0.00 | 79 | 1004.5 |
| 20260506005442 | 68 | 351 | 8.7 | 13.0 | 0.00 | 0.00 | 0.00 | 79 | 1004.6 |
| 20260506004940 | 68 | 341 | 10.4 | 13.9 | 0.00 | 0.00 | 0.00 | 78 | 1004.5 |
| 20260506003941 | 68 | 336 | 11.3 | 13.0 | 0.00 | 0.00 | 0.00 | 78 | 1004.4 |
| 20260506003441 | 68 | 350 | 7.8 | 13.9 | 0.00 | 0.00 | 0.00 | 78 | 1004.4 |
| 20260506002940 | 68 | 337 | 9.6 | 13.9 | 0.00 | 0.00 | 0.00 | 77 | 1004.2 |
| 20260506002441 | 69 | 343 | 11.3 | 14.8 | 0.00 | 0.00 | 0.00 | 77 | 1004.3 |
| 20260506001941 | 69 | 348 | 7.8 | 17.4 | 0.00 | 0.00 | 0.00 | 77 | 1004.0 |
| 20260506001441 | 69 | 351 | 11.3 | 17.4 | 0.00 | 0.00 | 0.00 | 76 | 1004.3 |
| 20260506000941 | 69 | 353 | 11.3 | 17.4 | 0.00 | 0.00 | 0.00 | 76 | 1004.2 |
| 20260506000440 | 70 | 343 | 11.3 | 17.4 | 0.00 | 0.00 | 0.00 | 76 | 1004.4 |
| 20260505235940 | 70 | 340 | 7.8 | 15.6 | 0.00 | 0.00 | 0.00 | 75 | 1004.2 |
| 20260505235441 | 70 | 348 | 8.7 | 15.6 | 0.00 | 0.00 | 0.00 | 75 | 1004.0 |
| 20260505234943 | 71 | 351 | 11.3 | 15.6 | 0.00 | 0.00 | 0.00 | 75 | 1004.1 |
| 20260505234441 | 71 | 349 | 9.6 | 15.6 | 0.00 | 0.00 | 0.00 | 75 | 1004.2 |
| 20260505233941 | 71 | 350 | 10.4 | 15.6 | 0.00 | 0.00 | 0.00 | 74 | 1004.1 |
| 20260505233441 | 72 | 348 | 9.6 | 15.6 | 0.00 | 0.00 | 0.00 | 75 | 1004.1 |
| 20260505232941 | 72 | 340 | 9.6 | 13.0 | 0.00 | 0.00 | 0.00 | 75 | 1003.9 |
| 20260505232441 | 73 | 353 | 8.7 | 14.8 | 0.00 | 0.00 | 0.00 | 73 | 1003.8 |
| 20260505231941 | 73 | 347 | 10.4 | 14.8 | 0.00 | 0.00 | 0.00 | 73 | 1003.4 |
| 20260505231441 | 73 | 348 | 8.7 | 14.8 | 0.00 | 0.00 | 0.00 | 72 | 1003.7 |
| 20260505230941 | 73 | 344 | 11.3 | 18.2 | 0.00 | 0.00 | 0.00 | 71 | 1003.9 |
| 20260505230441 | 74 | 334 | 11.3 | 18.2 | 0.00 | 0.00 | 0.00 | 71 | 1003.8 |
| 20260505225941 | 74 | 328 | 11.3 | 18.2 | 0.00 | 0.00 | 0.00 | 72 | 1003.9 |
| 20260505224441 | 77 | 332 | 9.6 | 13.9 | 0.00 | 0.00 | 0.00 | 69 | 1003.4 |
| 20260505223941 | 77 | 332 | 9.6 | 13.9 | 0.00 | 0.00 | 0.00 | 69 | 1003.3 |
| 20260505223441 | 77 | 340 | 8.7 | 13.0 | 0.00 | 0.00 | 0.00 | 69 | 1003.1 |
| 20260505221941 | 78 | 344 | 8.7 | 13.0 | 0.00 | 0.00 | 0.00 | 69 | 1002.8 |
| 20260505221441 | 78 | 331 | 7.8 | 15.6 | 0.00 | 0.00 | 0.00 | 69 | 1002.7 |
| 20260505220942 | 79 | 337 | 9.6 | 15.6 | 0.00 | 0.00 | 0.00 | 68 | 1002.6 |
| 20260505220442 | 80 | 350 | 12.2 | 15.6 | 0.00 | 0.00 | 0.00 | 66 | 1002.6 |
| 20260505215942 | 82 | 352 | 10.4 | 15.6 | 0.00 | 0.00 | 0.00 | 64 | 1002.4 |
| 20260505215442 | 83 | 337 | 9.6 | 12.2 | 0.00 | 0.00 | 0.00 | 60 | 1002.2 |
| 20260505214942 | 83 | 324 | 8.7 | 11.3 | 0.00 | 0.00 | 0.00 | 60 | 1002.3 |
| 20260505214441 | 82 | 323 | 7.8 | 12.2 | 0.00 | 0.00 | 0.00 | 61 | 1002.3 |
| 20260505213942 | 82 | 333 | 8.7 | 13.0 | 0.00 | 0.00 | 0.00 | 60 | 1002.4 |
| 20260505212941 | 84 | 324 | 7.0 | 14.8 | 0.00 | 0.00 | 0.00 | 56 | 1002.5 |
| 20260505212441 | 84 | 309 | 7.8 | 14.8 | 0.00 | 0.00 | 0.00 | 54 | 1002.4 |
| 20260505211942 | 84 | 308 | 8.7 | 14.8 | 0.00 | 0.00 | 0.00 | 53 | 1002.5 |
| 20260505210942 | 85 | 321 | 7.8 | 13.9 | 0.00 | 0.00 | 0.00 | 52 | 1002.5 |
| 20260505205942 | 84 | 298 | 10.4 | 13.0 | 0.00 | 0.00 | 0.00 | 49 | 1002.5 |
| 20260505205442 | 84 | 315 | 7.0 | 13.9 | 0.00 | 0.00 | 0.00 | 52 | 1002.6 |
| 20260505204942 | 84 | 320 | 10.4 | 13.9 | 0.00 | 0.00 | 0.00 | 50 | 1002.8 |
| 20260505204442 | 85 | 319 | 7.8 | 17.4 | 0.00 | 0.00 | 0.00 | 50 | 1002.7 |
| 20260505203942 | 86 | 301 | 8.7 | 17.4 | 0.00 | 0.00 | 0.00 | 52 | 1002.7 |
| 20260505203442 | 86 | 278 | 7.8 | 13.9 | 0.00 | 0.00 | 0.00 | 55 | 1002.6 |
| 20260505202942 | 87 | 262 | 7.8 | 13.9 | 0.00 | 0.00 | 0.00 | 56 | 1002.6 |
| 20260505202442 | 87 | 223 | 6.1 | 13.0 | 0.00 | 0.00 | 0.00 | 63 | 1002.5 |
| 20260505201942 | 87 | 228 | 6.1 | 13.9 | 0.00 | 0.00 | 0.00 | 64 | 1002.4 |
| 20260505201442 | 86 | 227 | 9.6 | 13.9 | 0.00 | 0.00 | 0.00 | 63 | 1002.7 |
| 20260505200942 | 86 | 216 | 7.8 | 13.9 | 0.00 | 0.00 | 0.00 | 64 | 1002.8 |
| 20260505200443 | 85 | 223 | 7.8 | 14.8 | 0.00 | 0.00 | 0.00 | 64 | 1002.8 |
| 20260505195942 | 85 | 235 | 8.7 | 14.8 | 0.00 | 0.00 | 0.00 | 63 | 1002.7 |
| 20260505195442 | 86 | 229 | 6.1 | 12.2 | 0.00 | 0.00 | 0.00 | 63 | 1002.7 |
| 20260505194942 | 86 | 228 | 7.0 | 11.3 | 0.00 | 0.00 | 0.00 | 63 | 1002.6 |
| 20260505193442 | 86 | 245 | 7.8 | 18.2 | 0.00 | 0.00 | 0.00 | 62 | 1002.8 |
| 20260505192442 | 86 | 217 | 10.4 | 18.2 | 0.00 | 0.00 | 0.00 | 63 | 1002.7 |
| 20260505191942 | 86 | 244 | 7.8 | 18.2 | 0.00 | 0.00 | 0.00 | 66 | 1002.6 |
| 20260505191442 | 85 | 219 | 7.8 | 14.8 | 0.00 | 0.00 | 0.00 | 65 | 1002.7 |
| 20260505190943 | 85 | 226 | 8.7 | 14.8 | 0.00 | 0.00 | 0.00 | 67 | 1002.7 |
| 20260505190443 | 85 | 213 | 6.1 | 13.0 | 0.00 | 0.00 | 0.00 | 66 | 1002.7 |
| 20260505185942 | 84 | 212 | 7.8 | 14.8 | 0.00 | 0.00 | 0.00 | 66 | 1002.7 |
| 20260505184943 | 84 | 217 | 6.1 | 17.4 | 0.00 | 0.00 | 0.00 | 66 | 1002.6 |
| 20260505182942 | 84 | 222 | 7.8 | 15.6 | 0.00 | 0.00 | 0.00 | 67 | 1002.8 |
| 20260505182443 | 83 | 218 | 7.8 | 14.8 | 0.00 | 0.00 | 0.00 | 67 | 1002.8 |
| 20260505180943 | 83 | 237 | 8.7 | 15.6 | 0.00 | 0.00 | 0.00 | 67 | 1002.7 |
| 20260505180443 | 83 | 218 | 7.8 | 15.6 | 0.00 | 0.00 | 0.00 | 68 | 1002.8 |
| 20260505175943 | 83 | 225 | 8.7 | 17.4 | 0.00 | 0.00 | 0.00 | 67 | 1002.9 |
| 20260505175443 | 83 | 219 | 8.7 | 17.4 | 0.00 | 0.00 | 0.00 | 68 | 1002.9 |
| 20260505174943 | 83 | 223 | 7.8 | 18.2 | 0.00 | 0.00 | 0.00 | 70 | 1002.8 |
| 20260505174443 | 82 | 222 | 12.2 | 19.1 | 0.00 | 0.00 | 0.00 | 69 | 1002.8 |
| 20260505173943 | 82 | 215 | 12.2 | 19.1 | 0.00 | 0.00 | 0.00 | 70 | 1002.8 |
| 20260505173444 | 81 | 217 | 12.2 | 19.1 | 0.00 | 0.00 | 0.00 | 72 | 1002.8 |
| 20260505172943 | 80 | 217 | 12.2 | 19.1 | 0.00 | 0.00 | 0.00 | 72 | 1002.8 |
| 20260505172443 | 80 | 220 | 11.3 | 19.1 | 0.00 | 0.00 | 0.00 | 73 | 1002.8 |
| 20260505171943 | 80 | 200 | 10.4 | 17.4 | 0.00 | 0.00 | 0.00 | 74 | 1002.7 |
| 20260505171443 | 80 | 216 | 8.7 | 17.4 | 0.00 | 0.00 | 0.00 | 75 | 1002.8 |
| 20260505170943 | 79 | 214 | 8.7 | 13.9 | 0.00 | 0.00 | 0.00 | 75 | 1002.8 |
| 20260505165943 | 78 | 202 | 9.6 | 15.6 | 0.00 | 0.00 | 0.00 | 76 | 1002.9 |
| 20260505165443 | 78 | 205 | 9.6 | 17.4 | 0.00 | 0.00 | 0.00 | 76 | 1002.8 |
| 20260505164944 | 78 | 206 | 7.8 | 17.4 | 0.00 | 0.00 | 0.00 | 76 | 1002.8 |
| 20260505164443 | 77 | 211 | 10.4 | 14.8 | 0.00 | 0.00 | 0.00 | 76 | 1002.8 |
| 20260505163943 | 77 | 205 | 8.7 | 17.4 | 0.00 | 0.00 | 0.00 | 76 | 1002.9 |
| 20260505163443 | 77 | 208 | 10.4 | 17.4 | 0.00 | 0.00 | 0.00 | 76 | 1002.9 |
| 20260505162943 | 77 | 207 | 8.7 | 15.6 | 0.00 | 0.00 | 0.00 | 77 | 1002.8 |
| 20260505161945 | 76 | 210 | 9.6 | 18.2 | 0.00 | 0.00 | 0.00 | 77 | 1002.8 |
| 20260505160943 | 76 | 216 | 12.2 | 20.0 | 0.00 | 0.00 | 0.00 | 77 | 1002.6 |
| 20260505160444 | 76 | 203 | 10.4 | 19.1 | 0.00 | 0.00 | 0.00 | 77 | 1002.6 |
| 20260505152444 | 76 | 210 | 9.6 | 22.6 | 0.00 | 0.00 | 0.00 | 78 | 1002.4 |
| 20260505151943 | 76 | 203 | 13.9 | 22.6 | 0.00 | 0.00 | 0.00 | 78 | 1002.1 |
| 20260505151444 | 76 | 211 | 12.2 | 20.9 | 0.00 | 0.00 | 0.00 | 78 | 1002.3 |
| 20260505150944 | 76 | 210 | 11.3 | 19.1 | 0.00 | 0.00 | 0.00 | 79 | 1002.4 |
| 20260505150444 | 75 | 208 | 11.3 | 19.1 | 0.00 | 0.00 | 0.00 | 79 | 1002.5 |
| 20260505140446 | 73 | 211 | 12.2 | 21.7 | 0.00 | 0.00 | 0.00 | 82 | 1002.1 |
| 20260505123945 | 71 | 209 | 11.3 | 20.9 | 0.00 | 0.00 | 0.00 | 84 | 1002.1 |
| 20260505123445 | 71 | 204 | 13.0 | 20.9 | 0.00 | 0.00 | 0.00 | 84 | 1001.9 |
| 20260505122945 | 71 | 208 | 12.2 | 20.0 | 0.00 | 0.00 | 0.00 | 84 | 1001.8 |
| 20260505122445 | 71 | 208 | 11.3 | 18.2 | 0.00 | 0.00 | 0.00 | 85 | 1001.7 |
| 20260505121945 | 70 | 206 | 10.4 | 20.0 | 0.00 | 0.00 | 0.00 | 84 | 1001.6 |
| 20260505120945 | 70 | 205 | 12.2 | 17.4 | 0.00 | 0.00 | 0.00 | 85 | 1001.5 |
| 20260505120445 | 70 | 203 | 11.3 | 18.2 | 0.00 | 0.00 | 0.00 | 85 | 1001.5 |
| 20260505115445 | 70 | 209 | 12.2 | 20.0 | 0.00 | 0.00 | 0.00 | 85 | 1001.5 |
| 20260505113946 | 70 | 207 | 11.3 | 17.4 | 0.00 | 0.00 | 0.00 | 85 | 1001.4 |
| 20260505112946 | 70 | 205 | 11.3 | 17.4 | 0.00 | 0.00 | 0.00 | 85 | 1001.5 |
| 20260505112445 | 70 | 207 | 9.6 | 18.2 | 0.00 | 0.00 | 0.00 | 85 | 1001.6 |
| 20260505111945 | 70 | 211 | 10.4 | 18.2 | 0.00 | 0.00 | 0.00 | 85 | 1001.5 |
| 20260505111445 | 70 | 209 | 11.3 | 17.4 | 0.00 | 0.00 | 0.00 | 85 | 1001.5 |
| 20260505110445 | 70 | 207 | 10.4 | 15.6 | 0.00 | 0.00 | 0.00 | 84 | 1001.5 |
| 20260505101946 | 71 | 196 | 12.2 | 18.2 | 0.00 | 0.00 | 0.00 | 83 | 1001.6 |
| 20260505101446 | 71 | 194 | 8.7 | 17.4 | 0.00 | 0.00 | 0.00 | 83 | 1001.6 |
| 20260505100946 | 71 | 205 | 10.4 | 18.2 | 0.00 | 0.00 | 0.00 | 83 | 1001.6 |
| 20260505095946 | 71 | 193 | 11.3 | 20.0 | 0.00 | 0.00 | 0.00 | 83 | 1001.6 |
| 20260505095446 | 71 | 199 | 12.2 | 20.0 | 0.00 | 0.00 | 0.00 | 83 | 1001.5 |
| 20260505094945 | 72 | 197 | 11.3 | 15.6 | 0.00 | 0.00 | 0.00 | 83 | 1001.5 |
| 20260505094446 | 72 | 192 | 9.6 | 17.4 | 0.00 | 0.00 | 0.00 | 82 | 1001.5 |
| 20260505093946 | 72 | 185 | 12.2 | 17.4 | 0.00 | 0.00 | 0.00 | 82 | 1001.5 |
| 20260505093445 | 72 | 185 | 9.6 | 20.0 | 0.00 | 0.00 | 0.00 | 82 | 1001.5 |
| 20260505092946 | 72 | 198 | 12.2 | 20.0 | 0.00 | 0.00 | 0.00 | 82 | 1001.5 |
| 20260505092446 | 72 | 186 | 12.2 | 18.2 | 0.00 | 0.00 | 0.00 | 82 | 1001.5 |
| 20260505091946 | 72 | 200 | 13.0 | 18.2 | 0.00 | 0.00 | 0.00 | 82 | 1001.6 |
| 20260505091446 | 72 | 204 | 11.3 | 17.4 | 0.00 | 0.00 | 0.00 | 82 | 1001.7 |
| 20260505090446 | 72 | 202 | 11.3 | 19.1 | 0.00 | 0.00 | 0.00 | 82 | 1001.8 |
| 20260505085946 | 72 | 199 | 11.3 | 19.1 | 0.00 | 0.00 | 0.00 | 82 | 1001.8 |
| 20260505085446 | 72 | 200 | 12.2 | 19.1 | 0.00 | 0.00 | 0.00 | 81 | 1001.8 |
| 20260505084946 | 72 | 200 | 9.6 | 17.4 | 0.00 | 0.00 | 0.00 | 81 | 1001.7 |
| 20260505083946 | 72 | 192 | 11.3 | 20.0 | 0.00 | 0.00 | 0.00 | 81 | 1001.9 |
| 20260505083446 | 72 | 196 | 12.2 | 20.0 | 0.00 | 0.00 | 0.00 | 80 | 1001.8 |
| 20260505082947 | 72 | 199 | 11.3 | 18.2 | 0.00 | 0.00 | 0.00 | 80 | 1001.8 |
| 20260505082446 | 72 | 194 | 10.4 | 17.4 | 0.00 | 0.00 | 0.00 | 80 | 1001.8 |
| 20260505081946 | 72 | 196 | 10.4 | 17.4 | 0.00 | 0.00 | 0.00 | 80 | 1001.9 |
| 20260505081447 | 72 | 197 | 10.4 | 17.4 | 0.00 | 0.00 | 0.00 | 79 | 1001.8 |
| 20260505080946 | 72 | 189 | 10.4 | 17.4 | 0.00 | 0.00 | 0.00 | 79 | 1001.8 |
| 20260505080446 | 73 | 202 | 9.6 | 15.6 | 0.00 | 0.00 | 0.00 | 79 | 1001.9 |
| 20260505075947 | 73 | 193 | 11.3 | 15.6 | 0.00 | 0.00 | 0.00 | 79 | 1001.9 |
| 20260505075446 | 73 | 195 | 9.6 | 17.4 | 0.00 | 0.00 | 0.00 | 79 | 1002.1 |
| 20260505074947 | 73 | 196 | 10.4 | 17.4 | 0.00 | 0.00 | 0.00 | 79 | 1002.1 |
| 20260505073946 | 73 | 193 | 10.4 | 19.1 | 0.00 | 0.00 | 0.00 | 78 | 1002.3 |
| 20260505073446 | 73 | 203 | 11.3 | 15.6 | 0.00 | 0.00 | 0.00 | 78 | 1002.5 |
| 20260505072447 | 73 | 199 | 11.3 | 18.2 | 0.00 | 0.00 | 0.00 | 77 | 1002.7 |
| 20260505071947 | 73 | 199 | 10.4 | 18.2 | 0.00 | 0.00 | 0.00 | 77 | 1002.8 |
| 20260505071446 | 73 | 200 | 11.3 | 17.4 | 0.00 | 0.00 | 0.00 | 77 | 1002.8 |
| 20260505070946 | 74 | 197 | 9.6 | 17.4 | 0.00 | 0.00 | 0.00 | 76 | 1002.8 |
| 20260505070447 | 74 | 194 | 12.2 | 18.2 | 0.00 | 0.00 | 0.00 | 76 | 1002.8 |